Detalii statie AGROIND CAUACEU DOISIG [00001986]

Toti senzorii

Date Temperatura solului [C]Precipitatii [mm]Voltaj baterie [mV]Leaf Wetness [Min]HC Air temperature [C]HC Relative humidity [%]Punctul de roua [C]
medieminmaxsumaultimatimpmedieminmaxmediemediemin
2017-06-25 06:00:00 0 6668
2017-06-25 07:00:00 0 6708
2017-06-25 08:00:00 0 6748
2017-06-25 09:00:00 0 6796
2017-06-25 10:00:00 0 6826
2017-06-25 11:00:00 0 6864
2017-06-25 12:00:00 0 6874
2017-06-25 13:00:00 0 6914
2017-06-25 14:00:00 0 6826
2017-06-25 15:00:00 0 6874
2017-06-25 16:00:00 0 6884
2017-06-25 17:00:00 0 6854
2017-06-25 18:00:00 0 6806
2017-06-25 19:00:00 0 6776
2017-06-25 20:00:00 0 6748
2017-06-25 21:00:00 0 6728
2017-06-25 22:00:00 2.2 6718
2017-06-25 23:00:00 5 6718
2017-06-26 00:00:00 0.4 6718
2017-06-26 01:00:00 5 6698
2017-06-26 02:00:00 2.2 6698
2017-06-26 03:00:00 0.2 6698
2017-06-26 04:00:00 0 6708
2017-06-26 05:00:00 0.2 6698
2017-06-26 06:00:00 0 6708
2017-06-26 07:00:00 0 6766
2017-06-26 08:00:00 0 6806
2017-06-26 09:00:00 0 6864
2017-06-26 10:00:00 0 6922
2017-06-26 11:00:00 0 6962
2017-06-26 12:00:00 0 6992
2017-06-26 13:00:00 0 6982
2017-06-26 14:00:00 0 6992
2017-06-26 15:00:00 0 6992
2017-06-26 16:00:00 0 6972
2017-06-26 17:00:00 0 6942
2017-06-26 18:00:00 0 6854
2017-06-26 19:00:00 0 6826
2017-06-26 20:00:00 0 6806
2017-06-26 21:00:00 0 6766